Temp_Advection
nan nan nan nan nan nan nan nan nan nan nan nan nan nan nan nan nan nan nan nan nan nan nan nan nan nan nan nan nan nan nan nan nan nan nan nan nan nan nan nan nan nan nan nan nan nan nan nan nan nan nan nan nan nan nan nan nan nan nan nan nan nan nan nan nan nan nan nan nan nan nan nan nan nan nan nan nan nan nan nan nan nan nan nan nan
nan -0 -0 -0 -1 -0 0 -0 -0 0 1 1 0 -0 0 -0 -0 -0 -0 -0 -0 -0 0 0 0 0 0 0 0 0 0 0 -0 -0 -0 -0 0 0 0 -0 -0 -0 0 0 0 0 0 0 0 0 0 0 0 0 -0 -0 -0 -0 -0 -0 -0 -0 -0 0 0 -0 0 0 -0 -0 -0 -0 -0 -0 -0 0 0 0 0 0 0 0 0 0 nan
nan -0 -0 -0 -1 -0 0 0 -0 -1 0 0 -0 -0 0 0 -0 -0 -0 -0 -0 -0 -0 0 0 0 0 0 0 -0 -0 -0 -0 0 0 0 0 0 -0 -0 -0 0 0 0 0 0 0 0 0 0 0 0 -0 -0 -0 -0 -0 -0 -0 -0 0 -0 -0 0 0 -0 -0 -0 -0 -0 -0 -0 0 -0 -0 0 0 0 0 0 0 0 -0 -0 nan
nan -0 -0 -0 -0 -0 0 1 0 -0 -0 -0 -0 -0 -0 0 0 -0 -0 -0 -0 -0 -0 0 0 0 0 0 -0 -0 -0 -0 -0 0 1 1 0 -0 -0 0 -0 -0 0 0 0 0 0 0 0 0 0 -0 0 0 0 0 -0 -0 -0 -0 0 0 0 0 -0 -1 -0 -0 -0 -0 -0 -0 0 -0 -0 -0 -0 -0 -0 0 0 0 0 -0 nan
nan -0 -0 -0 -0 -0 -0 1 1 1 0 -0 -0 -0 -0 -0 -0 -0 -0 0 -0 -0 -0 0 0 -0 0 0 0 -0 -0 -0 -0 0 1 1 0 0 0 -0 -0 -0 0 -0 0 1 0 0 0 0 0 0 0 0 0 0 -0 -0 0 -0 0 0 0 0 -0 -0 -1 -0 0 0 -0 -0 -0 0 -0 -0 -0 -0 -0 -0 -0 -0 0 0 nan
nan -0 -0 -0 -0 -0 -0 0 1 1 1 1 0 -0 -0 -0 0 0 -0 -0 -0 -0 -0 0 0 0 0 0 0 -0 -0 -0 -0 0 1 0 0 0 0 -0 -0 0 0 -0 0 1 0 0 0 0 0 0 0 0 0 0 -0 0 0 0 0 0 0 1 1 0 -0 -0 -0 0 0 0 -0 -0 -0 -0 -0 -0 -0 -0 -0 -0 -0 0 nan
nan -0 0 -0 -0 -0 -0 -0 -0 0 1 1 1 -0 -0 -0 -0 0 0 0 -0 -0 -0 0 0 0 0 0 0 0 -0 -0 0 0 0 -0 0 0 -0 -0 0 0 0 0 1 1 0 0 0 0 0 0 -0 0 0 0 0 0 1 0 1 0 -0 0 1 1 0 -0 -0 -0 -0 0 0 -0 -0 0 0 -0 -0 -0 -0 -0 -0 0 nan
nan -1 -0 -0 -0 -0 -0 -1 -0 -0 -0 0 0 0 -0 -0 -0 -0 -0 -0 -1 -0 0 0 0 0 0 0 0 -0 -0 -0 0 0 0 0 1 0 -0 -0 0 0 0 1 1 0 0 0 0 0 0 -0 0 0 0 0 0 0 0 1 1 0 -0 -0 -0 1 1 0 -0 -0 -0 -0 0 0 0 0 -0 -0 0 0 -0 0 0 0 nan
nan -1 -1 -1 -1 -1 -1 -1 -1 -1 -1 -1 -0 -0 -0 -0 -0 -0 -0 -1 -1 -0 0 0 0 0 -0 0 0 -0 -0 -0 0 0 0 0 0 -0 -0 -0 0 1 1 1 0 0 0 0 0 -0 -0 -0 -0 0 -0 -0 0 0 0 0 1 0 -0 -0 -0 0 0 0 -0 -0 -0 -0 -0 -0 0 0 0 0 0 0 0 0 0 0 nan
nan -2 -2 -1 -0 -1 -0 -0 -1 -1 -0 -0 -0 -0 -0 -0 -0 -0 -0 -0 -1 -1 -0 0 0 0 -0 0 0 -0 -0 -0 0 1 0 0 0 -0 -0 -0 0 0 0 0 0 -0 0 -0 -0 -0 -0 -0 0 -0 -0 0 0 0 0 0 0 -0 0 1 0 -0 0 0 0 0 0 -0 0 -0 0 0 0 0 0 0 0 0 0 0 nan
nan -1 -1 -0 0 -0 -0 -0 -1 -1 -0 0 0 -0 -0 -0 -0 -0 -0 -0 -1 -1 -0 1 1 0 -0 0 -0 -1 -0 -0 0 1 0 0 0 0 0 0 0 0 0 -0 -0 -0 -0 -0 -0 0 0 0 0 -0 -0 0 0 0 -0 -0 -0 0 0 0 0 -0 -0 0 0 0 0 0 0 0 0 0 0 0 0 0 0 0 0 0 nan
nan 0 1 0 -0 -0 -0 -0 -0 -0 0 0 0 0 -0 -0 -0 -0 -1 -0 -0 -1 -0 1 1 0 -0 -0 -0 -0 0 0 1 1 0 -0 -0 0 0 1 1 0 0 -0 -0 -0 -0 -0 -0 0 0 0 0 0 0 -0 -0 -0 -0 -0 -0 -0 -0 -0 -0 -0 0 0 0 0 0 0 0 0 0 0 0 0 0 0 0 0 0 0 nan
nan 0 0 -0 -0 -0 -0 -1 -0 0 0 -0 0 0 0 -0 -0 -0 -0 -0 -0 0 0 1 0 -0 -0 -0 0 0 0 1 1 1 0 -0 -0 0 0 0 0 -0 -0 -0 -0 -0 -0 0 0 0 -0 0 0 0 0 -0 -0 -0 -0 -0 -0 -0 -0 -0 -0 -0 0 0 0 0 0 0 0 0 0 0 0 0 0 0 0 0 0 0 nan
nan 1 0 -0 -1 -1 -0 -0 -0 -0 -0 -0 -1 -0 -0 -0 -0 -0 -0 -0 -0 0 0 0 0 -0 -0 0 0 0 0 1 1 1 0 0 0 0 0 -0 -0 -0 -0 -0 0 0 0 0 0 0 0 0 0 0 0 0 0 -0 -0 -0 -0 -0 -0 0 0 0 -0 0 0 0 -0 -0 -0 -0 0 0 0 0 0 0 0 0 -0 -0 nan
nan 1 0 -0 -1 -1 -0 -0 -1 -0 -0 -0 -1 -1 -1 -1 -0 -0 -0 -0 -0 -0 0 -0 -0 -0 0 0 0 0 0 1 1 0 -0 0 1 0 0 -0 -0 -0 0 0 0 0 0 0 0 0 0 0 -0 -0 -0 0 0 0 0 0 0 0 0 0 0 0 0 -0 -0 0 0 -0 -0 -0 0 0 0 0 0 0 0 -0 -0 0 nan
nan -0 -0 -0 -1 -1 -1 -1 -1 -1 -0 -0 -1 -2 -2 -1 -1 -1 -0 -0 -0 -0 -0 -0 -0 -0 0 0 0 0 1 0 0 -0 -0 -0 0 -0 -0 -0 0 0 0 0 0 0 0 0 0 0 0 -0 -0 0 -0 -0 0 1 1 1 1 0 0 0 0 0 0 0 0 0 0 0 0 0 0 0 0 0 0 0 0 0 0 0 nan
nan -1 -0 -1 -1 -1 -1 -1 -1 -0 -0 -0 -1 -2 -2 -1 -0 -0 -1 -1 -0 -0 -0 -0 -0 0 0 0 0 1 1 0 -0 -0 -0 -0 -0 -0 -0 0 0 0 0 0 0 -0 -0 -0 0 0 0 0 1 1 1 1 1 1 1 1 1 1 0 0 0 0 0 0 0 0 0 0 0 0 0 0 0 0 0 0 0 0 0 0 nan
nan -1 -0 -1 -1 -0 -0 -0 0 0 -0 -1 -1 -1 -1 -1 -0 -0 -0 -1 -0 -0 -0 -0 0 0 0 0 0 1 0 0 -0 -0 -0 -0 -0 0 0 0 0 0 0 0 0 0 -0 0 1 1 1 1 1 1 1 1 1 0 0 0 0 1 0 0 0 0 0 0 0 0 0 0 0 0 0 0 0 0 0 0 0 0 0 0 nan
nan -1 -1 -1 -0 -0 -0 -0 0 -0 -1 -1 -1 -1 -1 -0 0 -0 -0 -0 -0 -0 0 0 0 1 0 0 0 0 -0 -0 0 0 0 0 0 0 0 0 1 1 1 1 1 1 1 1 1 1 1 1 1 1 1 1 0 0 0 0 0 0 0 0 0 0 0 0 0 0 0 0 0 0 0 0 0 0 0 0 0 0 0 0 nan
nan -0 -1 -0 -0 -0 -0 -0 -0 -1 -1 -1 -1 -1 -1 -0 0 0 0 0 0 0 0 0 0 0 0 0 0 0 0 0 1 1 0 0 0 0 0 0 1 1 1 1 1 1 1 1 1 1 1 1 1 1 1 1 1 0 0 0 0 0 0 0 0 1 1 1 0 0 0 0 0 0 0 0 0 0 0 0 0 0 0 0 nan
nan 0 -0 -0 -0 -0 -0 -0 -0 -1 -1 -0 -0 -0 -0 0 0 0 0 0 1 1 1 0 -0 -0 0 0 0 0 1 1 1 1 0 0 0 0 0 0 1 0 0 0 0 0 1 1 1 1 1 1 0 0 1 1 1 0 0 0 0 0 0 0 1 1 1 1 0 0 0 0 0 0 0 0 0 0 0 0 0 0 0 0 nan
nan 0 -0 -0 -0 -0 -0 -0 -0 -0 -0 -0 -0 -0 -0 0 0 0 0 0 1 1 0 0 0 0 0 1 0 0 0 0 1 1 0 0 -0 -0 0 0 0 0 0 0 0 1 1 1 1 1 1 1 0 0 0 0 0 0 0 0 0 0 0 0 0 0 0 0 0 0 0 0 0 0 0 0 0 0 0 0 0 0 0 0 nan
nan -0 -0 -0 0 -0 -0 -0 -0 -0 0 -0 -0 -0 -0 0 0 0 0 0 1 1 1 0 0 0 0 0 1 0 0 0 1 1 1 1 0 -0 -0 0 0 0 0 0 0 0 0 0 0 0 1 1 1 0 0 0 0 0 0 0 0 0 0 0 0 0 0 0 0 0 0 0 0 0 0 0 0 0 0 0 0 0 0 0 nan
nan -0 -0 0 0 -0 -0 0 0 -0 0 -0 -0 -0 -0 0 0 -0 0 0 -0 -0 1 1 1 1 1 0 0 1 0 -0 0 1 1 1 0 0 0 0 0 1 1 0 0 0 -0 -0 0 0 0 0 0 0 0 0 0 0 0 0 0 0 0 0 0 0 0 0 0 0 -0 -0 0 0 0 0 0 0 0 0 0 0 0 0 nan
nan -0 -0 -0 -0 -0 0 0 -0 -0 -0 -0 -0 -0 -0 0 0 -0 -0 -0 -0 -1 -0 0 0 1 1 0 0 1 1 0 0 0 0 1 1 1 0 0 0 0 1 1 0 0 0 0 0 0 0 0 0 0 0 0 0 0 0 0 0 0 0 0 0 0 0 0 -0 0 -0 -0 -0 0 0 0 0 0 0 0 0 -0 -0 -0 nan
nan -0 -0 0 -0 -0 -0 -0 -0 -0 -0 -0 -0 -0 -0 -0 0 0 -0 -0 -0 -0 -0 -0 -0 0 0 -0 -0 1 1 0 0 0 0 1 1 1 0 0 0 0 0 1 1 1 1 1 1 1 0 1 1 1 0 0 0 0 0 0 0 0 0 0 0 0 0 -0 -0 0 0 0 0 0 0 0 0 0 0 0 0 -0 -0 -0 nan
nan -0 -0 -0 -0 0 0 -0 -0 0 0 -0 -0 -0 -0 -0 -0 -0 -1 -0 -0 0 0 0 -0 -0 -0 -0 -0 0 0 0 0 0 0 0 0 0 0 0 0 0 0 1 1 1 1 0 0 0 0 0 0 0 0 0 0 0 0 0 0 0 0 0 -0 -0 -0 0 0 0 0 0 0 -0 -0 0 0 0 0 0 0 -0 -0 -0 nan
nan -0 0 -0 -0 0 0 0 -0 -0 -0 -0 -0 -1 -0 -0 -0 -0 -1 -0 -0 -0 -0 -0 -0 -0 -0 -0 -0 -0 -0 -0 0 0 0 -0 -0 0 0 -0 -0 0 0 0 0 1 0 0 0 0 0 0 0 0 0 -0 0 0 0 0 0 0 0 0 0 0 0 0 0 0 0 0 0 0 0 0 0 0 0 0 0 0 0 0 nan
nan -0 0 -0 -0 0 -0 -0 -0 -0 -0 -0 -0 -0 -0 -0 -0 -0 -0 -0 -0 -0 -0 -0 -1 -0 0 0 0 0 0 -0 -0 -0 -0 -0 -0 -0 0 0 0 0 0 0 0 0 0 0 0 0 0 0 0 -0 0 0 0 0 -0 -0 -0 -0 0 0 0 0 0 0 0 0 0 0 0 0 -0 0 0 0 0 0 0 0 0 0 nan
nan -0 -0 -0 -0 0 -0 -0 -0 -0 -0 -0 -0 -0 -0 -0 -0 -0 -0 -0 -0 -0 -0 -1 -1 -0 -0 -0 -0 -0 0 0 0 0 0 0 0 0 0 0 0 0 0 0 0 0 0 0 0 0 0 0 0 0 0 0 0 0 -0 -0 0 0 0 0 0 0 0 -0 -0 -0 0 0 0 0 0 -0 0 0 0 -0 0 0 0 0 nan
nan -0 -1 -0 0 0 -0 -0 -0 -0 0 0 -0 -0 -0 -0 -0 -0 -0 -0 -0 -0 -0 -1 -1 -0 -0 -0 -0 -0 -0 -0 -0 -0 -0 0 0 0 0 0 0 0 0 0 0 0 0 0 0 0 0 0 0 0 0 0 0 0 0 0 0 1 0 0 1 1 0 0 -0 -0 -0 -0 0 0 0 0 0 0 0 0 0 0 0 0 nan
nan -0 -0 -0 -0 -0 -0 -0 0 0 0 -0 -0 -0 -0 -0 -0 -0 -0 0 -0 -0 -1 -1 -0 -0 -0 -0 -0 -0 -0 -0 -0 -0 -0 -0 0 0 0 0 0 0 0 0 0 0 0 0 0 0 0 0 0 0 0 0 0 0 1 1 1 1 1 0 0 1 1 0 0 0 -0 -0 0 0 0 0 0 0 -0 0 0 0 -0 -0 nan
nan -0 -0 -0 -0 -0 -0 -0 0 0 0 -0 -0 -0 -0 -0 -0 -0 -0 0 -0 -0 -0 -0 -0 -0 -0 -0 -0 -0 -0 -0 -0 -0 -0 -0 -0 0 0 0 0 0 0 0 0 0 0 0 0 0 0 0 0 0 0 0 0 0 1 1 1 1 1 0 0 0 0 0 0 0 0 0 0 0 -0 0 0 0 0 0 0 -0 -0 -0 nan
nan 0 -0 -0 -0 -0 -0 0 0 0 0 -0 -0 -0 -0 -0 -0 -0 -0 -0 0 -0 -0 -0 -0 -0 -0 -0 -0 -0 -0 -0 -0 -0 -0 -0 -0 0 0 0 -0 0 0 0 0 0 0 0 0 0 0 0 0 0 0 0 0 0 0 0 0 0 0 0 0 0 0 0 0 0 0 0 0 0 -0 -0 0 -0 -0 0 0 0 0 -0 nan
nan -0 -0 0 0 -0 -0 -0 0 0 0 -0 -0 0 -0 -0 0 -0 -0 -0 -0 -0 -0 -0 -0 -0 -0 -0 -0 0 0 0 0 0 0 -0 -0 -0 0 0 0 -0 -0 -0 0 -0 -0 -0 0 0 0 0 0 0 0 0 0 0 0 0 0 0 0 0 0 0 0 0 0 0 0 0 0 0 0 0 0 -0 -0 -0 0 0 0 0 nan
nan -0 -0 0 0 -0 -0 -0 0 0 0 0 -0 -0 -0 0 0 -0 -0 -0 -0 -0 -0 0 0 0 0 0 0 0 -0 -0 0 0 0 0 -0 -0 -0 0 0 -0 -0 -0 -0 0 0 0 0 0 0 0 0 0 0 0 0 0 0 0 0 0 0 0 0 0 0 0 0 0 -0 -0 0 0 0 0 -0 0 0 0 0 0 -0 -0 nan
nan -0 -0 0 0 -0 -0 -0 0 0 0 0 0 -0 -0 -0 -0 -0 -0 -0 -0 -0 -0 0 0 -0 -0 -0 -0 -0 -0 -0 -0 -0 0 0 -0 -0 -0 -0 0 0 0 0 0 0 0 0 0 0 0 0 0 0 0 0 0 0 0 0 0 0 0 0 0 0 0 0 0 -0 -0 0 0 0 0 0 -0 -0 0 0 0 0 -0 -0 nan
nan -0 -0 0 0 -0 -0 -0 -0 0 0 0 -0 -0 -0 -0 -0 -0 -0 -0 -0 -0 -0 -0 -0 -0 -0 -0 -0 -0 -0 -0 -0 -0 0 -0 -0 -0 -0 -0 -0 0 0 0 0 0 0 0 0 0 0 0 0 0 0 0 0 -0 0 0 0 0 0 0 0 -0 -0 0 0 -0 -0 -0 0 0 0 0 0 0 0 0 0 -0 -0 -0 nan
nan -0 -0 -0 0 0 -0 -0 0 0 -0 -0 -0 -0 -0 -0 -0 -0 -0 -0 -0 -0 -0 -0 -0 -0 -0 -0 -0 -0 -0 -0 -0 -0 -0 -0 -0 -0 -0 -0 -0 -0 0 0 0 0 0 0 0 0 0 0 0 -0 -0 0 0 0 -0 0 0 0 0 0 0 0 0 0 0 0 0 -0 -0 -0 -0 -0 -0 0 0 -0 0 0 -0 -0 nan
nan -0 0 0 0 0 0 0 0 -0 -0 -0 0 -0 -0 -0 -0 -0 -0 -0 -0 -0 0 -0 -0 -0 -0 0 -0 -0 -0 -0 -0 -0 -0 -0 -0 -0 -0 0 0 -0 -0 0 0 0 0 0 0 0 0 0 0 0 -0 0 0 0 0 0 0 0 0 0 0 0 0 0 0 0 0 0 0 -0 -0 -0 -0 -0 -0 -0 0 0 -0 -0 nan
nan -0 0 0 0 0 0 0 -0 -0 -0 0 0 -0 -0 0 0 -0 -0 -0 -0 0 0 -0 -0 -0 -0 -0 -0 0 0 -0 -0 -0 -0 -0 -0 0 -0 -0 0 -0 -0 -0 0 0 0 0 0 0 0 0 0 0 0 0 0 0 0 0 0 0 0 0 -0 -0 -0 0 0 0 0 0 0 -0 0 0 -0 -0 -0 0 0 -0 -0 -0 nan
nan -0 0 0 0 0 0 -0 -0 -0 -0 -0 -0 0 0 0 0 -0 0 0 0 0 -0 -0 -0 -0 -0 -0 -0 0 0 -0 -0 -0 -0 -0 -0 -0 -0 -0 -0 -0 -0 -0 -0 0 0 0 0 0 0 -0 -0 0 0 0 0 0 0 0 -0 -0 -0 -0 -0 -0 -0 -0 0 -0 -0 0 0 0 0 0 -0 -0 -0 -0 -0 -0 0 0 nan
nan 0 0 0 0 0 0 -0 -0 -0 -0 -0 0 0 0 0 0 0 0 0 0 0 -0 -0 -0 -0 -0 -0 0 0 0 -0 -0 -0 -0 -0 -0 -0 -0 -0 -0 -0 -0 -0 -0 -0 -0 -0 -0 -0 -0 -0 -0 -0 -0 -0 -0 -0 -0 -0 -0 -0 -0 -0 -0 -0 -0 0 -0 -0 -0 0 0 0 0 -0 -0 0 -0 -0 0 0 -0 0 nan
nan 0 -0 0 0 -0 -0 -0 -0 -0 0 0 0 0 0 0 0 0 0 0 0 0 -0 -0 -0 -0 0 0 0 0 -0 -0 -0 -0 -0 0 0 -0 -0 -0 -0 -0 -0 0 -0 -0 -0 -0 -0 -0 -0 -0 -0 -0 -0 -0 -0 -0 -0 -0 -0 -0 -0 -0 0 0 -0 -0 -0 0 0 0 0 0 -0 0 -0 -0 0 0 -0 -0 0 0 nan
nan 0 -0 -0 -0 -0 -0 -0 -0 0 0 0 0 0 0 0 -0 -0 0 -0 -0 0 0 0 0 0 0 0 0 0 -0 -0 -0 -0 0 0 0 0 0 -0 -0 -0 -0 0 0 0 -0 -0 -0 -0 -0 0 -0 -0 -0 -0 -0 -0 -0 -0 -0 -0 -0 0 0 0 -0 -0 0 0 0 0 0 -0 -0 -0 0 0 0 0 -0 0 0 0 nan
nan 0 -0 -0 -0 -0 -0 -0 -0 -0 0 -0 -0 -0 -0 -0 -0 -0 -0 -0 -0 0 0 0 0 0 0 0 0 0 -0 -0 -0 -0 -0 -0 -0 -0 0 0 -0 -0 -0 -0 -0 0 0 0 0 0 0 -0 -0 -0 -0 -0 -0 -0 -0 -0 0 0 0 0 0 0 0 -0 -0 -0 -0 -0 -0 -0 -0 -0 -0 -0 -0 -0 0 0 0 0 nan
nan 0 -0 -0 -0 -0 -0 -0 -0 -0 -0 -0 -0 -0 -0 -0 -0 -0 0 0 0 0 -0 -0 0 0 0 0 0 0 0 0 0 -0 -0 -0 -0 -0 0 0 0 -0 -0 -0 -0 0 0 0 0 0 0 0 0 0 0 0 0 0 0 0 0 0 0 0 0 -0 -0 -0 -0 -0 -0 -0 -0 -0 -0 -0 -0 -0 -0 0 0 0 0 0 nan
nan 0 0 0 -0 -0 -0 -0 -0 -0 -0 -0 -0 -0 -0 -0 -0 -0 -0 0 0 0 -0 -0 -0 -0 -0 0 0 0 0 0 0 0 0 0 0 0 0 0 0 0 0 -0 -0 -0 -0 -0 0 0 0 0 0 0 0 0 -0 0 0 0 0 0 0 -0 -0 -0 -0 -0 -0 -0 -0 -0 -0 -0 -0 -0 -0 0 0 0 0 0 0 0 nan
nan 0 0 0 -0 -0 -0 -0 -0 -0 -0 -0 -0 0 -0 -0 -0 -0 -0 -0 -0 0 0 0 -0 -0 -0 -0 -0 0 0 0 0 0 0 0 0 0 -0 0 0 0 0 0 -0 -0 -0 -0 0 0 0 0 0 0 0 0 0 0 0 0 -0 0 -0 -0 -0 -0 -0 -0 -0 -0 -0 -0 -0 -0 -0 -0 -0 0 0 0 0 0 0 -0 nan
nan 0 0 -0 -0 -0 -0 -0 -0 -0 -0 -0 -0 -0 -0 -0 -0 -0 -0 -0 -0 -0 -0 0 0 0 0 -0 -0 -0 -0 0 0 0 0 0 0 0 -0 -0 0 0 0 0 0 0 0 -0 -0 0 0 0 0 0 0 0 0 0 0 0 -0 -0 -0 -0 -0 -0 -0 -0 -0 -0 -0 -0 -0 -0 -0 -0 -0 0 0 0 0 -0 -0 -0 nan
nan nan nan nan nan nan nan nan nan nan nan nan nan nan nan nan nan nan nan nan nan nan nan nan nan nan nan nan nan nan nan nan nan nan nan nan nan nan nan nan nan nan nan nan nan nan nan nan nan nan nan nan nan nan nan nan nan nan nan nan nan nan nan nan nan nan nan nan nan nan nan nan nan nan nan nan nan nan nan nan nan nan nan nan nan
Wind_Speed
13 13 13 14 15 16 17 17 16 15 15 14 14 15 15 14 14 13 14 16 16 17 18 17 16 17 18 20 22 23 23 22 20 19 19 20 22 21 19 19 19 19 19 18 19 19 19 18 16 15 17 19 19 19 17 15 14 13 13 12 13 13 13 10 10 14 13 11 12 11 11 11 9 9 9 8 8 7 6 6 4 3 3 3 3
11 12 13 14 14 15 16 16 16 16 15 14 14 15 15 15 14 13 14 15 15 16 17 17 17 18 18 19 21 22 22 21 20 20 19 20 22 21 19 19 19 19 19 19 19 19 19 17 15 16 17 19 18 17 16 15 14 14 13 13 13 14 14 11 10 16 18 14 12 11 11 11 9 9 9 8 9 8 7 6 4 4 5 5 4
9 11 12 13 14 14 15 14 14 15 15 14 14 15 16 16 15 13 14 14 13 14 16 17 18 19 19 19 21 21 20 20 20 21 21 21 22 21 20 19 19 19 19 20 19 18 17 15 15 16 17 19 18 16 15 15 15 14 14 14 13 14 14 11 9 15 19 16 13 12 12 11 10 9 8 8 9 9 7 6 5 5 6 6 5
9 10 11 13 13 14 15 15 14 13 13 13 14 15 18 19 17 16 16 15 14 14 15 17 19 20 20 21 22 22 21 21 21 22 23 22 22 21 21 20 20 19 19 20 20 18 16 16 16 16 17 18 18 16 15 16 15 15 14 14 14 14 14 12 10 14 18 16 14 12 11 11 10 9 8 7 8 9 8 6 6 5 6 6 5
9 9 10 11 12 12 13 14 15 14 13 13 13 14 16 18 18 18 18 17 16 15 16 18 20 21 22 23 23 23 23 23 23 22 22 22 21 20 20 21 22 21 20 20 20 19 17 17 18 17 17 17 17 16 16 16 16 15 15 15 15 15 15 13 12 14 16 15 14 12 11 11 10 9 9 8 8 9 8 7 7 6 6 5 5
13 11 10 11 12 13 14 14 15 16 15 13 12 13 15 17 19 18 18 18 18 17 17 19 20 21 22 24 23 22 23 24 23 21 21 21 21 20 20 21 20 19 19 19 20 19 18 17 18 18 18 18 18 17 16 16 16 16 16 17 16 16 17 15 14 15 15 15 15 13 12 11 10 10 10 9 9 9 9 8 7 7 6 5 4
16 15 13 13 13 14 15 15 16 17 17 16 13 12 13 15 18 17 17 18 19 20 19 19 20 21 22 23 22 21 23 23 21 20 21 21 21 21 21 20 20 19 19 19 18 18 17 17 18 19 19 18 18 17 17 17 18 19 20 18 17 19 20 18 17 17 15 14 14 14 13 13 11 10 10 10 9 8 8 8 7 7 6 5 5
18 18 17 16 14 14 15 16 17 17 18 17 15 13 12 13 14 15 16 18 21 22 20 19 19 20 21 22 21 21 22 21 19 20 20 20 22 23 22 20 20 19 19 18 17 17 17 17 18 19 19 19 18 17 17 18 19 20 21 20 19 22 24 22 21 19 15 13 14 13 13 13 12 11 11 11 9 8 8 8 7 7 7 6 6
19 20 19 17 16 15 14 14 15 16 15 14 14 14 13 13 13 13 15 17 20 22 21 19 18 19 20 20 20 22 22 20 19 21 22 21 22 23 21 19 18 18 18 17 17 17 17 17 18 19 20 19 19 19 19 20 20 18 18 18 20 24 26 25 23 20 16 14 13 13 13 13 12 12 11 10 9 9 10 9 7 7 6 5 6
18 19 19 18 17 16 15 14 15 16 14 12 13 13 14 14 14 14 14 16 18 20 22 20 18 19 21 21 22 24 23 21 21 22 22 21 21 21 20 19 18 17 17 17 18 17 16 17 19 19 18 18 20 20 20 21 21 18 17 17 18 22 25 24 23 19 15 13 13 13 13 12 12 11 10 11 11 10 11 10 7 7 6 5 6
16 17 19 19 17 16 16 17 17 17 16 13 11 11 12 13 15 15 15 16 16 18 21 21 20 22 23 23 25 26 24 22 21 20 20 19 19 19 20 20 19 17 18 19 19 19 18 18 18 17 17 19 20 20 19 20 20 19 19 17 16 19 21 20 18 16 12 12 12 12 11 11 11 10 9 10 11 10 9 7 6 6 6 6 7
17 19 22 23 19 14 15 18 18 17 18 19 15 10 10 11 13 15 14 14 15 17 19 20 20 23 26 26 27 26 24 23 21 19 18 20 20 18 17 19 19 18 18 19 19 20 19 19 18 18 19 20 20 21 21 22 21 20 19 17 16 17 17 15 14 12 10 11 11 10 10 10 10 10 9 9 9 8 7 6 6 6 6 5 5
18 20 23 25 22 15 13 16 18 18 20 23 23 15 8 6 8 10 11 12 13 14 16 17 18 22 26 27 27 25 24 23 21 19 19 20 20 18 16 16 18 18 19 18 19 20 19 19 20 20 20 20 21 23 24 24 22 20 18 18 17 17 16 15 14 12 10 10 10 10 10 10 9 10 10 10 8 6 6 6 5 5 5 5 6
18 22 24 27 25 19 14 15 18 19 20 23 26 21 11 5 5 6 7 8 9 11 13 15 17 21 24 25 25 25 25 23 20 20 20 20 20 18 17 17 18 19 19 19 19 19 19 19 20 20 21 22 23 23 22 22 21 20 19 19 19 18 17 15 14 11 10 10 10 10 10 10 9 9 10 9 7 6 6 6 5 5 6 8 9
19 22 25 27 27 21 17 17 19 20 20 21 25 24 18 12 9 8 7 7 8 11 12 12 15 19 22 22 23 25 25 23 21 20 20 19 20 19 17 18 19 19 19 21 20 19 18 19 20 21 22 23 23 22 21 21 22 23 22 21 20 18 16 14 11 10 8 8 7 6 7 8 8 8 8 8 7 7 7 8 8 7 7 7 7
21 21 24 26 28 24 19 18 19 20 19 20 24 26 23 18 13 10 8 8 9 11 11 11 13 18 20 21 24 25 24 22 21 20 19 18 19 18 15 16 18 18 18 19 19 18 18 19 21 23 24 23 24 24 24 24 25 25 24 23 20 18 16 13 11 9 7 6 5 4 6 8 9 9 9 8 8 8 6 6 6 6 5 5 4
24 22 22 24 27 27 23 20 19 19 20 21 24 26 26 21 16 12 9 8 10 11 12 13 14 17 21 23 24 25 24 24 22 20 18 17 16 15 14 15 18 19 20 21 21 20 20 21 23 25 25 24 25 25 23 23 23 21 20 19 19 18 16 14 11 9 7 6 6 7 8 10 10 9 9 8 9 8 5 3 4 3 4 5 4
23 21 21 21 24 27 26 23 20 19 21 23 24 26 26 23 19 15 12 10 8 8 10 13 16 20 21 22 21 22 24 25 22 19 18 17 14 12 11 13 16 20 22 22 22 22 22 23 23 23 23 25 25 22 20 19 18 17 16 17 16 15 13 11 9 8 7 7 8 8 10 10 9 8 8 7 8 7 6 7 6 4 4 5 4
20 19 20 20 21 24 25 24 23 22 22 23 24 25 25 22 18 14 11 9 5 1 4 9 15 19 18 16 16 19 21 23 22 19 17 15 13 10 8 8 13 19 21 20 20 20 21 22 22 21 22 24 23 19 17 16 17 17 17 15 13 11 11 10 9 9 9 9 9 9 8 8 7 7 6 6 6 5 6 8 7 5 5 5 4
18 17 18 18 18 19 21 23 24 24 24 23 23 23 22 19 16 12 10 9 7 7 8 7 9 12 14 12 13 17 20 19 18 17 14 12 10 8 5 5 11 16 19 20 21 21 20 21 22 21 21 22 20 18 17 17 18 17 15 12 10 10 11 11 10 10 9 9 8 7 6 6 5 5 4 4 4 4 5 7 7 6 6 4 3
18 16 16 17 16 16 17 19 21 22 23 24 22 21 19 16 15 13 10 11 13 12 11 9 6 8 12 12 11 15 17 15 15 14 11 9 8 6 3 5 10 13 18 21 22 21 20 20 21 21 21 21 20 18 16 16 14 12 11 9 8 8 9 9 9 9 9 7 7 6 6 5 5 4 4 4 4 4 5 6 8 8 7 7 5
18 17 16 17 18 16 14 14 16 18 20 22 22 23 21 18 18 18 15 13 14 13 11 9 7 8 11 11 11 13 14 12 13 13 10 9 9 10 9 5 5 9 15 19 19 19 20 20 21 21 21 20 19 17 14 12 9 7 7 7 6 7 7 7 8 10 9 9 9 8 7 6 5 4 4 4 4 4 4 5 6 7 8 8 8
16 17 17 18 20 20 17 13 12 13 16 18 19 21 22 21 22 23 22 19 17 16 15 11 7 8 10 11 12 14 13 13 13 14 13 12 12 12 13 12 9 8 12 14 14 16 20 21 21 21 19 18 16 13 10 9 7 7 8 8 8 9 9 10 11 12 11 11 10 9 8 7 6 5 4 4 4 4 4 5 5 5 5 6 6
16 17 18 19 22 24 22 18 15 14 13 13 14 16 17 19 20 22 23 23 21 21 21 16 13 15 17 16 16 16 16 17 19 18 17 17 15 15 15 14 12 11 11 12 12 14 15 14 14 15 13 12 11 10 9 9 8 9 9 9 9 9 9 10 11 10 10 10 9 9 9 8 8 7 6 6 6 5 5 5 5 5 5 4 4
17 18 18 19 21 23 24 23 22 21 18 16 15 16 16 17 18 17 17 17 16 18 20 19 19 22 22 20 19 19 19 19 19 19 18 17 15 14 13 12 11 11 11 12 13 12 11 11 11 11 10 9 9 8 8 8 8 9 10 9 9 8 7 7 8 9 9 9 9 8 8 8 8 8 8 7 7 6 6 6 6 6 6 5 4
18 19 18 19 19 20 21 23 23 24 23 22 21 20 19 20 20 19 17 16 13 12 13 13 15 18 19 19 20 19 18 17 16 15 15 14 13 12 10 9 9 8 8 10 12 12 12 12 12 11 10 8 7 7 7 8 8 8 7 6 5 6 7 8 9 9 9 9 9 9 9 10 9 8 8 8 8 7 7 7 7 7 7 6 6
18 18 18 18 19 19 19 20 20 21 22 22 22 22 22 21 21 21 21 19 17 14 11 9 9 10 12 14 15 15 15 16 15 14 13 13 12 11 10 9 9 7 6 9 11 11 11 11 11 10 9 9 8 7 7 7 6 4 2 2 2 5 7 9 9 9 9 9 10 10 11 10 8 8 9 9 8 8 9 8 7 7 6 6 6
17 17 17 18 19 19 18 17 18 18 18 19 21 21 21 21 21 21 21 21 20 18 14 12 11 9 8 8 7 7 8 10 10 11 11 11 12 12 12 11 10 9 8 9 11 12 11 10 10 9 8 7 6 6 5 5 4 3 3 5 6 6 6 6 7 9 10 11 11 11 10 10 9 9 9 9 8 8 8 8 7 7 6 6 6
18 18 18 17 17 18 18 18 18 18 17 17 18 19 19 19 20 20 20 19 19 19 18 16 15 12 9 7 5 4 3 4 5 6 7 9 10 12 13 14 13 12 11 10 11 12 11 10 10 9 8 8 7 7 7 6 4 4 6 8 9 9 9 9 10 11 12 12 12 12 10 10 10 9 9 9 8 8 8 8 8 7 7 6 6
16 17 18 18 17 16 16 17 18 19 19 18 17 17 17 17 18 20 20 18 17 17 19 20 19 16 13 11 10 8 6 5 5 6 7 9 11 12 14 14 14 13 12 10 10 11 12 12 11 11 10 9 8 6 5 4 3 4 6 8 9 10 11 12 13 13 14 14 13 13 11 10 10 9 8 9 9 8 9 9 8 7 6 6 5
16 16 17 18 18 17 15 15 15 17 18 19 19 19 19 19 20 21 21 19 18 19 20 22 22 21 19 19 17 15 14 12 11 10 11 12 15 16 15 14 13 13 12 10 9 10 12 12 12 11 9 7 5 4 3 3 4 6 8 10 11 11 13 13 13 13 14 14 13 13 12 11 10 10 10 9 9 8 8 8 7 6 5 5 4
17 16 16 17 19 18 16 15 15 15 16 16 16 18 19 20 22 23 23 22 22 22 22 22 23 23 22 22 21 20 18 17 16 15 13 14 15 17 16 14 13 12 11 9 9 10 11 10 10 8 6 4 3 2 2 5 7 9 10 11 12 12 13 14 14 13 12 12 12 12 12 12 11 11 10 10 9 7 7 6 6 5 5 5 5
18 17 16 16 17 18 18 17 16 16 16 15 15 15 16 17 19 21 21 22 22 23 23 23 23 23 23 23 22 22 21 19 17 16 15 14 14 15 15 14 13 11 10 9 8 9 9 8 7 6 4 3 2 1 4 7 9 10 11 12 13 13 13 13 13 12 11 12 13 13 12 11 10 10 9 8 7 6 5 5 5 4 4 5 5
17 17 17 17 17 17 18 17 16 16 17 16 16 16 16 16 16 16 17 19 20 21 21 21 20 20 20 21 21 20 19 18 17 15 14 13 12 12 12 12 10 9 8 7 6 6 6 5 4 3 2 1 1 4 7 8 9 10 11 12 13 13 12 11 11 11 11 12 12 12 11 10 9 8 7 6 6 6 5 5 5 5 5 5 5
16 15 16 17 17 17 17 17 16 16 17 17 17 17 17 16 16 16 16 16 18 19 19 18 18 17 17 17 18 17 17 16 15 13 11 9 8 8 8 9 8 8 7 7 6 5 5 5 4 3 2 3 5 8 9 10 9 9 11 12 13 13 12 11 11 11 11 11 11 11 10 9 8 7 6 6 7 7 6 6 6 6 6 5 6
17 15 15 16 16 16 16 16 17 17 17 17 17 17 17 16 16 16 15 15 15 16 16 16 16 15 15 15 14 14 14 14 13 11 9 6 5 5 5 5 6 5 5 6 6 6 5 5 4 4 4 6 8 9 9 9 9 9 10 10 11 11 11 11 11 11 11 10 10 11 10 9 8 7 7 8 8 8 7 7 7 7 7 7 7
20 18 15 14 15 15 15 15 17 19 18 16 15 16 16 16 16 16 15 16 15 14 13 14 14 14 14 15 14 13 14 14 13 11 9 8 6 5 5 6 5 4 4 4 5 5 5 5 4 5 7 9 10 8 8 8 8 8 8 8 8 9 10 11 11 11 10 9 10 11 9 8 7 7 7 7 7 6 6 6 6 6 8 9 8
21 21 18 16 15 15 14 13 15 16 15 14 14 14 14 14 15 15 14 14 14 13 13 12 12 12 13 14 14 15 15 15 14 13 12 11 10 9 8 6 5 3 3 5 5 4 4 4 5 6 8 9 9 8 7 8 9 8 7 7 9 10 11 11 11 11 9 8 9 9 8 7 6 6 6 6 7 6 6 6 5 5 6 7 6
17 20 20 18 15 14 14 14 13 13 12 12 12 12 12 13 13 13 13 13 13 12 12 12 11 12 12 12 12 13 13 12 13 14 13 12 11 11 10 8 6 5 4 4 4 4 5 6 6 7 7 7 7 7 7 8 9 9 9 9 10 10 9 8 8 8 7 7 7 6 6 6 5 5 5 5 5 5 6 6 6 5 4 4 4
13 16 18 18 15 14 14 14 13 12 12 11 11 11 11 11 12 12 11 12 12 11 11 11 10 10 11 11 12 12 12 11 11 12 12 11 10 9 8 7 6 5 5 5 5 5 6 6 6 6 6 7 7 7 7 7 8 9 9 8 8 8 7 7 6 6 6 7 6 6 5 5 5 4 4 4 4 4 4 4 5 4 4 3 2
11 12 14 15 15 14 14 14 14 13 12 11 11 10 10 10 10 10 11 11 11 11 11 11 9 9 10 11 12 13 11 11 10 10 10 10 10 9 8 6 5 3 3 3 4 4 4 5 5 5 6 6 7 7 7 7 8 8 8 7 7 7 7 7 7 8 8 7 6 5 5 5 4 4 3 3 4 4 3 3 3 3 2 1 0
9 10 11 12 12 12 12 13 13 13 12 11 11 11 11 10 10 10 10 11 11 11 11 10 9 9 10 11 12 13 12 10 10 10 9 9 9 9 8 7 5 3 2 2 2 3 4 4 5 5 6 6 7 7 6 6 7 7 7 7 7 7 6 6 7 8 8 7 7 7 6 5 4 4 3 3 3 2 1 2 1 0 0 1 1
8 8 8 9 10 10 10 11 11 11 11 12 12 12 12 11 11 10 11 11 11 11 11 9 8 8 9 10 12 13 12 10 10 10 9 8 8 8 8 8 6 4 2 1 2 3 4 4 4 5 6 7 8 8 7 7 7 6 6 7 8 7 6 6 6 7 6 6 7 7 6 4 3 2 1 2 3 1 0 0 1 1 2 2 2
6 6 6 8 8 8 8 9 8 9 11 12 12 12 12 12 11 11 11 11 11 11 10 8 7 7 8 9 11 11 10 9 9 9 9 8 8 7 7 7 6 4 2 2 2 3 4 4 5 5 6 6 7 8 8 9 8 8 7 6 6 6 6 6 6 7 7 6 6 5 4 4 3 2 1 0 2 1 1 2 2 3 2 2 3
5 5 5 6 6 7 7 7 7 8 9 9 9 9 10 10 10 10 10 11 11 10 9 8 7 6 7 7 8 8 8 8 8 9 9 8 8 6 5 6 6 4 2 1 1 2 3 3 4 4 4 4 5 5 6 6 7 7 7 7 6 6 6 6 7 7 7 7 5 4 3 3 3 3 2 1 0 1 2 4 4 3 3 3 4
4 5 5 4 5 5 6 6 6 7 7 7 7 8 8 8 8 8 9 9 9 9 9 8 7 7 7 6 6 6 6 6 6 7 7 7 8 6 5 6 7 6 3 2 1 2 2 3 3 3 3 4 4 4 4 4 4 5 6 6 6 7 7 6 6 7 7 7 6 5 5 4 4 4 5 4 2 3 4 4 4 4 3 4 4
3 4 4 4 4 4 4 5 6 6 6 7 7 7 7 7 7 7 7 8 8 7 7 7 7 7 7 6 6 5 5 5 5 6 6 6 6 6 6 7 8 7 5 5 3 3 3 3 3 3 3 3 3 3 3 3 4 4 5 5 6 6 6 7 7 7 7 7 7 7 6 5 4 4 4 3 2 3 3 3 4 4 3 2 3
3 3 3 4 4 4 4 4 5 5 5 6 6 6 6 7 7 7 7 8 7 6 6 6 6 6 6 6 6 5 5 5 6 7 7 6 5 5 7 10 9 7 6 6 6 5 5 5 5 4 4 3 3 3 3 3 4 5 5 6 7 7 7 7 8 8 8 8 7 7 7 7 6 5 4 3 2 2 3 3 3 3 2 1 3
3 3 3 3 3 3 3 3 4 4 4 5 6 6 6 6 7 7 7 7 7 7 7 7 7 7 7 7 7 7 6 7 7 8 8 8 7 6 7 10 9 7 6 6 6 7 7 7 7 6 6 6 5 4 4 5 5 6 6 7 7 7 7 7 8 8 8 8 8 7 7 7 6 5 4 2 1 1 2 2 2 1 0 1 3
3 2 2 2 2 3 3 3 3 4 4 4 5 5 6 6 6 7 7 7 8 8 8 8 8 9 8 9 9 9 9 9 9 9 9 9 8 8 8 9 9 8 7 6 6 6 7 8 8 8 8 8 7 7 7 6 6 7 7 7 7 7 7 7 7 7 7 8 8 8 8 7 6 5 4 2 1 1 1 2 1 0 1 1 3
3 2 2 2 2 3 3 3 3 3 4 4 4 5 5 6 6 6 6 7 7 8 8 9 9 10 10 10 10 10 11 12 12 13 12 11 11 11 11 9 8 7 7 6 6 6 5 6 7 8 9 10 9 9 9 9 8 8 7 7 6 6 6 6 6 6 7 7 8 8 7 7 6 5 4 3 1 1 1 2 1 1 2 2 3
Wind_Direction
323 319 312 306 302 299 298 296 292 283 276 275 274 269 262 258 257 248 237 234 238 241 241 240 239 239 239 237 232 226 222 224 224 223 226 228 226 225 223 221 218 214 213 214 214 214 213 206 201 204 204 199 201 201 196 196 195 195 199 196 197 195 189 201 196 170 168 173 166 166 171 167 164 169 181 195 196 193 193 195 196 188 179 176 177
325 320 315 310 308 305 301 299 295 287 279 275 276 273 264 257 255 253 249 243 240 241 243 241 238 236 236 233 229 224 221 222 222 222 226 227 225 222 216 214 215 214 213 210 208 211 212 204 197 201 205 202 201 199 196 199 198 197 200 196 198 198 191 199 200 174 167 166 162 167 170 164 166 176 184 201 205 197 199 205 202 192 187 178 178
329 324 320 316 313 311 308 304 298 291 286 280 276 274 266 257 252 254 257 254 248 243 241 239 235 233 230 227 223 219 217 220 219 220 223 223 222 218 212 211 213 210 208 205 205 209 209 205 201 202 204 202 197 195 197 200 200 200 201 197 196 196 191 198 199 172 165 166 164 166 170 168 169 175 182 198 203 191 191 202 201 198 193 180 182
336 325 321 319 320 318 315 311 306 299 294 286 278 273 267 263 259 255 254 257 257 253 245 236 231 230 226 222 220 217 216 219 219 218 220 220 218 215 213 211 210 205 204 203 202 204 206 205 203 202 203 202 197 196 199 200 200 201 201 198 196 193 188 191 188 166 160 164 165 165 171 172 168 171 176 185 191 184 183 192 190 189 192 182 182
2 342 326 323 327 328 325 321 315 308 297 287 281 275 270 267 264 259 255 257 257 255 250 237 226 226 225 220 218 217 216 219 220 217 217 217 215 213 213 211 209 206 204 203 201 201 205 206 204 202 202 201 198 199 201 201 199 200 199 196 194 191 182 179 177 169 164 166 165 164 168 169 167 169 170 168 174 176 177 182 178 178 184 179 178
19 10 349 334 329 328 328 325 319 314 306 296 288 280 272 265 263 262 259 258 255 251 249 240 226 221 222 220 218 216 215 217 219 216 215 217 215 212 212 209 208 206 203 201 201 200 202 205 204 202 202 201 200 200 202 201 198 198 199 196 192 185 176 171 173 175 174 171 168 167 167 167 168 169 169 166 164 167 172 175 176 180 183 178 189
17 12 2 348 337 328 324 320 315 312 308 301 293 285 278 268 263 262 260 259 259 254 248 241 230 220 217 218 215 214 215 216 218 217 217 220 218 214 211 206 204 204 201 200 202 202 202 204 203 201 201 201 201 202 201 198 197 197 193 189 190 185 176 171 169 171 174 173 170 169 169 169 169 169 173 172 167 170 175 177 184 193 199 200 206
16 9 4 356 348 340 331 324 320 317 314 308 299 289 281 273 266 262 259 259 262 260 252 242 234 224 217 215 211 211 215 215 214 215 212 212 215 213 208 203 200 199 197 197 200 201 200 202 205 202 200 198 198 198 196 193 197 199 188 183 191 188 179 176 174 170 170 171 169 169 170 170 170 170 177 178 175 179 185 189 193 196 209 222 215
13 9 7 2 359 357 348 340 339 336 329 320 310 298 286 277 270 262 259 260 260 260 254 242 233 228 223 217 210 210 213 211 211 212 205 205 212 211 204 199 195 192 193 193 196 199 198 201 205 204 200 198 195 195 194 190 192 193 186 187 195 188 179 179 179 174 171 172 171 170 170 173 175 177 180 181 181 189 197 199 198 199 210 220 221
11 9 7 6 10 15 13 11 6 356 346 331 317 307 296 284 275 267 261 258 258 258 253 241 228 226 226 220 213 211 211 209 209 209 204 205 212 209 202 198 194 189 189 191 194 195 194 202 208 206 203 201 199 197 195 191 189 187 185 188 191 188 185 185 185 183 180 174 174 174 173 175 180 182 183 187 194 201 202 202 202 208 213 202 218
9 7 4 5 12 18 22 24 17 6 0 350 326 306 296 287 278 272 266 260 257 256 251 241 229 223 222 218 214 212 210 208 205 202 201 203 204 202 200 197 194 192 191 194 197 194 193 203 208 204 201 199 196 193 191 189 187 185 184 182 179 183 188 188 186 188 183 174 176 178 176 178 181 182 184 192 201 201 196 200 203 208 219 218 229
14 12 10 9 8 9 16 22 17 9 7 4 350 317 288 282 279 276 273 266 257 254 252 244 233 225 221 217 215 212 208 205 201 197 202 206 201 200 200 192 186 190 193 196 201 200 200 204 203 199 198 195 191 190 186 183 181 179 178 177 173 176 181 181 179 179 174 170 173 174 173 175 178 179 180 183 191 193 190 197 204 208 229 235 227
15 15 13 11 8 5 11 19 18 13 10 6 358 342 301 278 281 276 273 266 258 258 255 244 233 228 223 217 211 207 203 201 198 197 204 206 200 198 200 192 185 188 192 193 199 204 204 202 199 197 194 190 189 188 182 178 177 179 178 176 174 172 172 174 175 170 160 153 153 157 160 162 167 177 187 186 184 191 198 207 211 211 219 214 211
16 17 16 14 11 9 12 19 18 15 13 8 3 358 349 338 327 303 290 281 270 263 252 238 231 227 220 211 206 203 199 194 193 198 202 200 194 194 198 195 193 194 194 194 197 202 203 200 197 194 191 191 190 185 179 177 177 178 178 175 172 169 166 168 171 168 160 154 157 166 169 170 178 188 199 198 191 192 203 210 206 206 219 230 241
21 20 20 20 17 14 15 20 18 14 13 13 12 12 13 11 359 336 311 300 291 278 262 247 234 221 213 207 203 201 195 187 186 196 198 190 186 190 194 193 196 200 201 202 200 196 199 200 195 191 191 190 186 179 176 176 174 173 173 171 169 166 163 164 164 164 164 163 171 182 187 197 208 214 213 209 204 203 211 221 221 227 244 247 249
26 24 23 25 25 21 20 21 18 15 16 18 19 21 22 21 11 349 317 296 288 279 268 252 227 210 205 204 200 195 187 181 183 188 187 181 182 189 195 198 203 206 205 206 202 195 199 201 194 190 190 186 180 177 175 173 169 168 167 164 162 162 160 157 157 157 159 163 175 196 214 223 227 229 223 217 216 215 217 234 235 238 252 227 195
26 27 26 28 29 27 27 29 25 23 25 25 24 26 27 25 20 8 347 318 286 266 256 245 222 206 202 197 194 192 184 177 179 180 177 179 184 189 198 207 212 212 210 208 201 194 197 199 196 194 188 178 171 170 171 171 169 168 166 160 155 156 158 157 159 164 167 180 198 211 218 219 218 221 222 221 225 217 194 203 213 211 242 228 191
22 24 26 30 33 30 32 37 35 32 31 29 29 30 30 27 24 18 6 342 304 267 250 234 209 198 197 191 190 193 181 170 172 174 172 176 181 182 194 210 217 217 214 206 195 192 194 194 193 189 176 164 164 165 167 172 173 170 167 161 154 156 161 163 168 175 181 191 203 208 212 215 218 224 225 224 225 211 187 198 210 210 233 238 227
18 20 24 31 37 35 34 38 40 38 34 31 32 35 34 31 27 23 21 11 356 267 216 209 187 179 185 188 187 183 170 161 165 171 172 176 177 174 183 217 228 218 208 196 186 188 190 180 170 167 161 158 162 162 157 159 163 163 164 167 166 166 170 176 182 187 190 193 195 198 204 211 215 219 220 219 218 209 204 211 210 196 192 204 225
19 20 23 29 38 39 38 40 43 43 40 36 36 38 39 40 38 37 42 50 65 94 107 117 138 150 159 168 169 164 162 162 162 162 168 174 170 166 178 230 228 207 192 183 175 173 173 163 153 155 158 157 154 153 151 154 160 164 169 177 182 181 184 190 189 185 186 186 183 184 190 192 193 197 200 209 214 211 213 214 199 173 155 149 181
24 22 26 30 34 39 42 44 46 48 48 45 42 42 45 51 58 60 65 79 85 85 90 99 108 121 129 138 152 155 156 157 148 144 154 162 144 121 128 228 225 198 177 171 165 159 160 158 153 153 158 157 153 152 156 162 167 171 179 188 194 193 194 194 182 172 170 165 158 157 161 162 166 182 195 207 216 211 208 210 201 182 159 137 127
31 27 31 35 36 37 42 47 51 55 57 56 52 50 51 59 70 73 70 78 87 86 90 103 110 113 123 137 147 143 136 132 129 131 135 131 110 92 99 138 195 187 169 163 160 159 161 159 157 157 160 161 159 155 157 164 171 177 180 183 183 181 183 175 157 146 141 138 140 140 140 144 153 173 198 210 217 213 201 195 192 187 180 168 149
39 35 36 41 43 43 42 41 50 59 64 65 64 62 60 60 67 73 71 70 78 89 101 115 121 120 127 131 127 124 119 112 114 116 113 109 101 97 109 124 134 153 164 163 164 166 162 159 160 161 160 160 158 157 161 168 172 172 168 166 166 164 162 153 144 141 143 144 144 140 135 135 140 146 166 183 184 179 170 160 156 156 164 172 171
47 45 43 46 50 52 50 48 51 56 61 65 69 71 70 68 66 67 68 67 68 76 90 107 114 110 111 110 107 111 114 110 108 106 102 102 105 110 118 125 130 144 156 154 156 162 161 159 158 155 156 159 157 160 168 167 166 164 156 151 152 150 150 151 152 157 160 154 147 144 141 141 143 150 161 165 155 142 134 129 126 127 130 138 145
47 50 49 52 55 57 58 59 61 62 62 63 66 69 74 76 73 67 63 62 59 60 70 81 89 93 100 103 101 103 109 109 108 107 107 110 117 124 131 135 139 149 157 157 160 167 169 169 163 154 156 162 162 165 168 163 157 154 148 145 145 144 152 163 164 165 167 162 159 163 165 165 166 165 159 145 127 115 112 109 104 97 90 80 78
43 47 49 54 58 59 62 65 67 67 66 66 67 69 72 74 76 74 70 66 63 60 61 66 72 79 87 90 91 96 106 111 113 113 115 119 124 127 129 126 124 135 156 166 170 172 169 165 158 151 150 151 149 150 151 145 141 138 137 143 153 163 175 177 170 170 174 175 173 170 170 169 164 149 132 121 116 115 113 109 105 101 94 85 73
42 44 45 50 54 57 60 66 68 69 69 67 67 69 72 73 74 73 69 65 64 67 71 71 65 63 69 73 76 81 89 97 103 107 108 108 107 103 97 91 87 92 126 150 153 152 148 142 134 132 132 129 124 121 120 119 116 113 124 153 174 187 187 180 175 174 173 170 166 159 153 148 137 124 119 120 124 125 119 112 111 109 109 108 94
45 45 45 47 49 50 53 59 63 65 66 67 67 67 68 69 69 66 62 57 54 55 60 68 69 62 60 64 65 68 75 79 86 91 91 91 90 88 86 86 85 89 108 128 131 128 128 128 125 122 121 119 115 108 99 92 91 107 145 154 153 159 164 165 169 168 163 157 152 143 134 128 124 124 124 121 119 117 113 111 112 109 103 103 98
46 46 47 47 45 45 47 51 54 56 57 59 63 66 65 65 64 61 59 55 50 48 50 57 63 64 68 75 78 86 104 102 95 93 92 92 94 95 93 92 92 96 101 108 114 116 120 123 121 115 111 107 105 104 102 101 112 135 153 160 161 159 154 154 158 157 152 146 138 130 128 129 127 125 123 120 118 117 114 111 109 106 102 97 92
46 45 46 48 48 45 45 48 50 53 55 56 59 62 64 63 61 60 59 58 56 55 56 60 63 64 67 73 75 77 88 103 118 125 120 111 106 102 98 95 97 103 106 106 108 113 116 117 115 112 110 106 102 99 100 107 130 160 173 175 172 166 159 157 157 154 149 144 140 137 135 129 121 119 119 118 116 115 115 110 103 97 96 93 88
48 44 43 48 52 51 48 48 50 51 53 57 60 63 66 67 66 65 64 64 66 68 69 70 70 69 67 68 70 71 73 76 81 89 99 104 104 101 100 101 103 105 107 108 111 115 119 120 119 115 110 102 85 71 83 123 154 170 175 171 164 160 157 152 149 148 147 145 144 143 138 130 126 127 125 119 113 109 106 104 98 97 96 90 87
50 48 43 44 50 53 51 51 54 55 54 55 58 61 65 68 71 73 73 73 73 74 74 74 74 72 71 70 69 69 69 70 72 75 82 93 100 103 106 110 112 111 113 119 125 126 129 130 126 120 110 91 66 64 119 147 155 160 162 158 153 153 152 146 139 138 140 140 139 140 137 133 131 130 124 117 111 106 102 102 101 101 96 86 84
51 53 50 46 47 50 51 50 53 57 58 57 58 59 61 65 69 73 75 77 78 79 79 80 80 81 80 77 74 71 69 68 68 71 76 84 95 104 109 113 118 121 126 133 139 141 142 141 135 130 118 85 62 122 151 151 150 151 152 152 149 147 147 144 140 140 141 139 136 133 130 126 123 120 117 112 111 110 108 107 105 102 96 85 77
48 53 57 54 49 51 53 52 53 57 59 59 59 60 61 63 67 70 73 76 79 79 79 79 80 80 79 76 72 69 68 67 66 67 72 78 89 102 113 120 127 131 136 148 155 155 157 160 159 155 152 136 156 158 155 153 152 151 152 151 148 143 139 136 137 138 136 133 131 128 124 118 112 109 106 104 107 108 106 106 105 103 100 90 75
42 45 53 54 51 52 56 57 58 60 59 59 60 61 61 62 65 67 69 72 73 74 74 73 72 71 68 65 61 57 55 55 55 57 64 76 90 104 118 132 141 144 150 164 179 187 187 190 195 198 203 188 168 158 154 151 150 151 154 152 147 142 137 136 137 137 133 132 134 134 128 121 117 122 129 131 125 114 109 112 111 106 99 84 71
40 39 45 50 50 51 56 63 69 68 63 59 60 61 61 62 63 64 65 66 67 68 68 64 60 58 55 53 50 48 46 44 43 46 51 65 96 125 147 164 171 171 166 172 190 206 207 207 217 220 198 174 158 150 147 144 140 143 148 147 142 137 135 136 138 138 138 140 140 132 123 115 112 116 124 127 123 116 112 110 105 105 104 90 71
42 42 48 54 52 50 56 66 72 70 64 60 61 61 60 61 62 62 63 64 63 62 62 57 51 46 43 40 40 42 42 40 41 49 55 61 78 116 154 173 185 199 199 190 196 212 222 224 222 206 184 169 157 147 141 138 136 135 135 135 139 141 143 146 145 139 136 136 132 123 116 114 115 115 114 114 113 110 106 96 77 69 77 79 71
42 43 53 64 61 54 56 61 63 63 62 60 61 61 58 57 58 57 57 58 57 56 54 52 48 42 36 31 31 34 37 36 39 46 55 60 67 80 101 120 136 155 183 196 199 205 211 201 181 165 161 158 152 148 146 146 148 146 139 140 148 151 151 151 145 135 127 124 119 114 111 113 116 117 117 117 116 112 110 106 90 61 56 61 65
42 42 51 62 62 56 57 58 57 58 61 59 57 55 54 53 52 51 49 49 47 45 43 40 38 36 32 30 34 38 35 33 37 42 46 52 57 63 73 84 96 107 125 154 165 157 154 152 142 139 145 146 145 145 146 149 156 156 148 145 148 147 145 142 134 127 125 122 117 117 123 128 128 122 114 109 104 100 99 102 103 96 78 63 58
46 43 48 56 58 55 54 56 56 56 56 55 51 49 49 48 46 43 41 39 35 33 32 30 30 31 32 38 50 54 42 30 30 36 40 46 51 54 60 70 83 99 117 135 141 140 142 141 136 139 147 147 145 146 145 146 149 147 143 144 146 146 147 147 142 141 142 137 133 137 140 133 125 120 118 114 105 96 89 82 79 82 83 72 54
48 44 45 51 54 53 51 52 53 52 52 51 49 45 43 42 40 36 33 30 26 25 25 24 29 40 45 48 56 59 48 32 30 33 35 40 46 47 48 54 63 79 110 131 132 129 134 139 141 146 149 146 145 150 151 147 143 141 144 151 156 157 160 162 162 159 153 145 142 148 150 145 143 150 146 124 98 83 77 71 61 60 62 49 19
50 47 46 48 50 52 51 49 49 49 48 47 47 45 43 39 35 32 29 26 24 24 26 28 39 55 59 55 56 56 50 38 35 37 36 37 41 43 42 44 46 50 82 117 121 124 135 143 146 148 152 152 150 147 144 143 147 154 162 167 168 168 169 175 175 165 154 155 167 172 169 164 162 163 148 111 93 80 78 98 94 69 264 259 272
50 49 49 48 47 48 49 48 48 49 48 47 46 45 42 39 35 33 32 31 28 28 31 38 51 61 61 54 51 50 45 36 34 36 35 33 34 34 35 38 41 48 68 109 134 140 142 147 154 160 168 170 163 154 152 158 164 169 176 180 180 176 173 178 178 165 159 179 194 187 172 156 146 147 144 121 120 128 311 98 162 237 257 262 278
52 47 46 47 45 45 45 45 43 42 41 41 41 40 38 37 37 35 34 33 32 32 36 41 47 50 48 43 40 38 36 33 33 32 29 26 26 23 18 20 27 44 73 107 149 158 157 159 168 173 177 179 174 170 174 177 176 174 179 185 187 184 183 187 184 177 178 195 204 195 176 162 151 155 235 193 131 132 301 296 269 249 245 249 262
55 50 45 45 44 41 41 41 36 31 30 31 31 30 31 32 32 32 33 32 31 32 35 36 34 30 26 26 27 28 29 31 29 26 25 22 18 13 4 0 4 13 41 89 130 159 168 172 177 179 181 186 189 188 188 188 186 185 187 190 192 196 201 202 200 198 196 193 188 190 197 186 166 169 206 243 274 209 243 264 271 270 263 257 261
64 55 46 45 44 39 37 34 29 27 26 24 20 19 19 19 20 21 22 22 25 29 29 26 23 19 14 12 14 17 20 20 17 18 21 20 15 8 358 350 350 347 332 303 218 178 183 186 189 192 193 193 197 200 200 203 208 208 207 208 209 211 213 215 215 217 213 200 190 193 202 204 204 204 202 204 225 250 256 267 284 290 278 260 256
76 62 53 49 44 37 33 28 22 20 19 16 13 11 8 5 3 1 357 358 6 15 17 15 15 13 9 7 6 4 4 2 358 355 358 3 7 6 356 349 349 343 321 299 278 241 219 209 205 210 211 204 204 212 222 232 240 239 235 234 232 228 226 225 224 224 223 216 210 208 206 203 211 227 226 214 226 267 296 320 324 314 303 260 238
73 71 67 58 47 38 31 23 18 16 13 8 4 2 358 354 352 349 343 341 340 340 342 347 352 354 354 355 357 352 344 342 341 340 339 338 338 341 346 350 352 344 321 302 286 266 252 241 229 226 230 228 225 228 237 250 260 263 259 256 251 245 239 235 231 228 227 224 220 217 212 206 204 214 226 230 246 293 323 333 321 312 313 245 216
80 81 75 64 51 37 27 16 9 3 358 353 351 350 347 344 342 340 338 333 327 322 321 322 325 328 330 330 330 328 326 324 324 326 328 325 315 311 327 343 348 344 330 312 293 275 266 260 253 245 242 242 243 244 247 253 260 267 270 270 263 252 243 236 232 229 225 223 221 217 212 210 210 213 221 233 268 321 335 339 329 314 297 188 193
83 83 72 64 53 33 18 7 0 356 352 350 349 347 344 343 342 338 333 331 331 329 325 321 319 319 320 319 317 315 311 309 309 311 315 316 308 298 301 317 331 336 334 326 310 290 272 263 260 256 252 249 250 251 252 255 259 265 274 277 269 254 241 234 230 227 223 219 217 213 208 209 212 215 222 236 257 322 343 344 349 51 133 165 174
70 73 68 61 48 30 11 3 4 6 1 359 359 356 352 350 348 343 337 335 333 329 325 323 322 321 321 320 319 316 311 306 302 298 299 302 302 297 291 292 304 317 322 321 320 315 298 277 269 264 258 255 254 252 252 254 256 260 270 277 271 255 243 234 229 226 220 214 209 207 208 213 217 220 227 239 256 302 332 331 345 116 147 171 178
Height
1519 1518 1517 1516 1515 1514 1513 1512 1511 1510 1509 1509 1509 1510 1510 1510 1510 1510 1510 1510 1510 1509 1509 1508 1509 1510 1510 1510 1510 1511 1512 1513 1515 1516 1518 1520 1521 1522 1523 1524 1525 1525 1526 1528 1530 1532 1535 1536 1538 1540 1541 1542 1544 1545 1546 1548 1549 1551 1553 1553 1554 1555 1556 1557 1556 1558 1560 1562 1564 1566 1566 1567 1569 1571 1571 1571 1572 1573 1574 1574 1575 1575 1576 1576 1576
1518 1517 1515 1514 1513 1512 1511 1510 1509 1508 1507 1507 1508 1508 1508 1508 1507 1507 1507 1508 1507 1507 1507 1507 1507 1508 1508 1508 1508 1509 1510 1511 1512 1514 1515 1516 1518 1520 1522 1522 1523 1524 1526 1527 1529 1532 1535 1536 1537 1539 1540 1541 1542 1544 1546 1547 1548 1550 1551 1552 1553 1554 1555 1556 1556 1556 1559 1562 1564 1565 1566 1567 1570 1571 1571 1571 1572 1573 1574 1574 1575 1575 1575 1576 1576
1516 1515 1513 1512 1511 1510 1509 1508 1507 1506 1505 1505 1505 1506 1506 1505 1505 1505 1505 1505 1505 1505 1505 1505 1505 1506 1506 1507 1506 1507 1508 1509 1510 1512 1513 1514 1516 1518 1520 1521 1522 1523 1525 1527 1529 1532 1535 1536 1537 1538 1539 1540 1541 1542 1544 1546 1547 1549 1550 1551 1552 1553 1554 1555 1555 1555 1558 1561 1563 1565 1566 1567 1569 1570 1571 1571 1571 1573 1574 1575 1575 1575 1575 1576 1576
1515 1513 1512 1511 1510 1509 1508 1506 1505 1504 1504 1503 1503 1504 1503 1503 1503 1503 1503 1503 1502 1502 1502 1503 1503 1503 1504 1505 1505 1505 1506 1507 1509 1510 1511 1513 1514 1516 1518 1519 1521 1523 1524 1526 1528 1530 1533 1534 1536 1537 1537 1538 1540 1541 1543 1544 1546 1547 1548 1549 1551 1552 1553 1554 1555 1555 1558 1560 1562 1564 1565 1566 1568 1570 1570 1570 1571 1572 1574 1575 1575 1575 1575 1575 1576
1514 1512 1511 1510 1509 1508 1507 1505 1504 1503 1502 1502 1501 1501 1501 1501 1501 1501 1501 1501 1500 1500 1500 1500 1500 1500 1501 1502 1503 1503 1504 1505 1507 1508 1510 1512 1513 1515 1516 1518 1519 1521 1523 1525 1526 1528 1531 1533 1534 1535 1536 1537 1538 1540 1541 1543 1544 1545 1547 1548 1549 1550 1551 1553 1554 1555 1557 1559 1561 1563 1564 1566 1567 1569 1570 1570 1571 1572 1574 1574 1575 1575 1575 1575 1576
1513 1512 1511 1509 1508 1507 1506 1504 1503 1501 1500 1500 1499 1499 1498 1498 1498 1498 1499 1498 1498 1498 1498 1497 1498 1497 1498 1500 1501 1502 1503 1504 1505 1507 1509 1511 1512 1514 1515 1516 1518 1520 1521 1523 1524 1526 1529 1531 1532 1533 1534 1535 1536 1538 1540 1541 1542 1543 1544 1545 1546 1548 1550 1551 1553 1554 1556 1557 1559 1561 1563 1565 1567 1568 1569 1570 1571 1572 1573 1574 1575 1575 1575 1575 1576
1513 1512 1511 1509 1508 1506 1505 1503 1502 1500 1498 1497 1497 1497 1496 1495 1495 1496 1496 1496 1496 1496 1495 1495 1495 1496 1497 1498 1500 1501 1502 1503 1505 1506 1508 1510 1513 1514 1515 1515 1516 1518 1519 1521 1523 1525 1527 1529 1530 1531 1532 1533 1535 1536 1537 1538 1539 1539 1540 1542 1544 1546 1548 1549 1551 1553 1554 1556 1558 1560 1562 1564 1565 1567 1568 1569 1570 1572 1573 1574 1574 1575 1574 1574 1575
1513 1512 1510 1509 1507 1505 1504 1502 1500 1499 1497 1495 1495 1494 1494 1493 1493 1493 1493 1493 1493 1493 1493 1494 1494 1495 1496 1497 1499 1500 1501 1502 1504 1506 1507 1509 1513 1514 1514 1515 1515 1517 1518 1520 1522 1524 1526 1527 1528 1529 1530 1531 1532 1534 1535 1536 1536 1536 1536 1539 1541 1543 1546 1548 1549 1551 1553 1555 1557 1559 1561 1562 1564 1566 1567 1568 1569 1571 1572 1572 1573 1574 1574 1574 1574
1514 1512 1510 1508 1506 1504 1503 1501 1499 1498 1496 1495 1494 1492 1491 1491 1491 1491 1490 1490 1490 1490 1491 1492 1493 1495 1495 1496 1498 1499 1500 1501 1503 1505 1507 1509 1512 1513 1514 1514 1515 1516 1518 1520 1522 1524 1525 1526 1526 1526 1528 1529 1530 1531 1531 1533 1534 1534 1536 1538 1540 1542 1545 1547 1549 1550 1552 1555 1557 1558 1559 1561 1563 1564 1565 1567 1568 1569 1570 1571 1572 1573 1573 1573 1573
1515 1513 1510 1509 1507 1504 1502 1501 1499 1497 1495 1494 1493 1491 1490 1488 1488 1488 1488 1488 1487 1487 1488 1489 1491 1493 1494 1494 1496 1497 1499 1501 1503 1505 1507 1509 1511 1511 1512 1513 1514 1515 1518 1520 1521 1522 1524 1524 1523 1525 1527 1528 1530 1530 1530 1531 1533 1534 1537 1538 1539 1542 1545 1546 1549 1550 1552 1554 1555 1557 1558 1560 1562 1563 1564 1566 1567 1568 1568 1569 1571 1571 1572 1572 1572
1516 1514 1511 1509 1507 1505 1503 1500 1499 1497 1495 1493 1491 1489 1488 1486 1485 1485 1485 1485 1485 1484 1485 1486 1487 1489 1490 1492 1493 1495 1498 1500 1503 1505 1507 1508 1510 1510 1510 1511 1513 1515 1516 1518 1519 1521 1522 1522 1522 1524 1527 1528 1529 1530 1530 1532 1533 1535 1537 1538 1540 1543 1545 1547 1549 1550 1551 1553 1554 1555 1557 1559 1560 1562 1563 1564 1565 1566 1567 1568 1569 1570 1570 1571 1570
1517 1515 1512 1509 1507 1505 1503 1500 1499 1497 1495 1492 1490 1488 1486 1485 1484 1483 1483 1483 1483 1482 1483 1483 1485 1487 1488 1490 1492 1495 1497 1499 1502 1505 1506 1507 1508 1509 1509 1510 1512 1514 1515 1516 1518 1519 1520 1521 1522 1523 1525 1526 1528 1529 1530 1532 1534 1536 1537 1539 1541 1543 1546 1548 1549 1549 1550 1552 1553 1555 1556 1558 1559 1560 1562 1563 1564 1565 1566 1567 1568 1569 1569 1569 1569
1518 1515 1512 1509 1506 1504 1502 1500 1499 1497 1494 1492 1489 1486 1484 1483 1482 1481 1481 1481 1481 1481 1481 1482 1484 1487 1487 1489 1491 1494 1497 1499 1501 1503 1506 1506 1507 1509 1509 1510 1511 1513 1514 1515 1517 1517 1519 1520 1521 1522 1524 1526 1527 1529 1530 1532 1534 1536 1537 1539 1541 1542 1544 1546 1547 1548 1550 1551 1552 1554 1555 1557 1558 1559 1560 1561 1562 1564 1565 1566 1566 1567 1567 1567 1567
1518 1515 1513 1510 1506 1504 1502 1500 1498 1496 1494 1492 1488 1485 1482 1481 1480 1480 1480 1480 1480 1480 1481 1482 1483 1485 1487 1489 1491 1493 1495 1497 1500 1503 1505 1505 1506 1508 1510 1510 1510 1511 1512 1514 1515 1516 1518 1519 1520 1522 1524 1525 1526 1528 1530 1532 1533 1535 1537 1538 1540 1541 1543 1544 1546 1547 1548 1550 1551 1552 1554 1555 1556 1557 1558 1560 1561 1563 1564 1565 1564 1564 1564 1564 1564
1518 1516 1513 1510 1507 1504 1502 1500 1498 1496 1495 1492 1488 1485 1481 1480 1479 1479 1479 1479 1479 1479 1480 1481 1483 1485 1487 1489 1490 1492 1494 1496 1499 1502 1504 1504 1505 1507 1508 1509 1509 1510 1511 1512 1514 1516 1518 1519 1520 1522 1522 1524 1526 1528 1531 1532 1533 1534 1536 1537 1539 1541 1542 1544 1545 1546 1548 1549 1550 1551 1553 1554 1555 1556 1557 1558 1559 1561 1562 1562 1562 1562 1562 1562 1562
1518 1516 1514 1511 1508 1505 1502 1500 1499 1497 1495 1493 1489 1486 1482 1480 1479 1479 1478 1478 1478 1478 1479 1480 1481 1483 1485 1487 1488 1491 1494 1496 1499 1501 1503 1504 1505 1506 1507 1508 1508 1509 1510 1512 1514 1516 1518 1519 1520 1520 1521 1523 1525 1528 1530 1531 1532 1534 1535 1537 1538 1540 1542 1543 1545 1546 1547 1549 1550 1551 1552 1553 1554 1555 1556 1557 1558 1559 1559 1560 1560 1560 1560 1560 1560
1518 1516 1515 1512 1509 1507 1503 1501 1500 1498 1496 1494 1491 1487 1484 1482 1480 1479 1479 1478 1478 1478 1478 1479 1480 1482 1484 1485 1487 1490 1493 1495 1498 1500 1501 1503 1504 1504 1505 1507 1507 1509 1509 1510 1512 1514 1516 1517 1518 1519 1520 1523 1525 1528 1530 1532 1533 1535 1536 1537 1538 1539 1541 1543 1544 1546 1547 1548 1549 1550 1551 1552 1552 1553 1554 1555 1556 1557 1558 1559 1559 1559 1559 1559 1558
1519 1517 1515 1513 1511 1509 1506 1503 1501 1499 1498 1495 1492 1489 1487 1484 1482 1481 1480 1479 1478 1478 1478 1478 1479 1481 1483 1484 1486 1489 1492 1494 1497 1499 1500 1502 1502 1503 1504 1505 1507 1508 1508 1508 1510 1512 1514 1516 1517 1519 1522 1524 1526 1529 1531 1532 1534 1536 1537 1539 1539 1540 1541 1543 1544 1545 1546 1547 1548 1549 1549 1550 1551 1552 1553 1554 1555 1556 1557 1558 1557 1558 1559 1558 1558
1520 1518 1516 1514 1512 1510 1508 1505 1503 1501 1499 1497 1495 1492 1490 1487 1486 1484 1483 1481 1480 1479 1479 1480 1479 1480 1483 1485 1487 1490 1492 1493 1495 1498 1500 1501 1502 1501 1503 1505 1506 1507 1508 1508 1510 1512 1514 1515 1517 1521 1524 1526 1527 1529 1531 1532 1534 1536 1538 1539 1540 1540 1541 1542 1543 1544 1545 1546 1547 1547 1548 1549 1550 1551 1552 1553 1554 1554 1555 1555 1555 1556 1557 1557 1557
1521 1519 1517 1515 1513 1512 1510 1507 1505 1503 1501 1499 1497 1495 1493 1491 1489 1488 1486 1485 1484 1483 1483 1482 1482 1483 1486 1488 1489 1492 1494 1494 1496 1498 1500 1501 1501 1501 1503 1505 1506 1507 1508 1509 1510 1512 1515 1517 1518 1521 1525 1526 1527 1529 1531 1533 1535 1536 1538 1539 1539 1540 1541 1542 1542 1543 1544 1545 1546 1546 1547 1548 1548 1550 1551 1551 1552 1553 1553 1554 1554 1554 1555 1556 1556
1523 1521 1519 1517 1515 1513 1511 1509 1507 1506 1504 1502 1500 1498 1496 1495 1493 1492 1490 1488 1487 1486 1486 1486 1487 1489 1490 1491 1492 1494 1496 1497 1498 1499 1500 1501 1501 1502 1504 1506 1507 1508 1510 1511 1512 1514 1517 1519 1520 1522 1525 1526 1528 1530 1531 1533 1535 1536 1537 1538 1539 1540 1540 1541 1541 1542 1543 1544 1545 1546 1546 1547 1548 1548 1550 1550 1551 1551 1551 1552 1552 1553 1554 1555 1555
1525 1523 1520 1519 1516 1514 1513 1511 1510 1508 1507 1505 1504 1502 1500 1499 1497 1495 1494 1492 1490 1489 1489 1489 1491 1492 1493 1495 1496 1496 1498 1498 1498 1499 1501 1501 1502 1503 1506 1508 1509 1511 1512 1514 1515 1517 1519 1521 1522 1523 1525 1527 1528 1530 1532 1533 1535 1535 1536 1537 1538 1539 1540 1540 1541 1543 1544 1544 1545 1546 1547 1547 1547 1548 1549 1549 1549 1550 1550 1550 1551 1551 1551 1552 1553
1527 1524 1522 1520 1518 1516 1514 1513 1512 1511 1509 1508 1507 1505 1504 1503 1501 1499 1498 1497 1494 1492 1491 1493 1494 1495 1496 1497 1497 1498 1498 1499 1499 1500 1501 1502 1503 1505 1508 1510 1512 1514 1515 1516 1517 1519 1520 1522 1523 1523 1525 1527 1528 1530 1531 1533 1534 1535 1536 1537 1538 1539 1540 1541 1542 1543 1544 1545 1546 1546 1547 1547 1547 1548 1548 1548 1548 1549 1549 1549 1550 1550 1551 1551 1551
1528 1526 1524 1522 1521 1519 1517 1515 1514 1513 1511 1510 1509 1508 1507 1506 1505 1504 1502 1501 1499 1497 1495 1496 1497 1497 1497 1498 1499 1500 1500 1501 1501 1502 1503 1505 1506 1509 1511 1512 1514 1515 1517 1518 1519 1520 1522 1523 1524 1525 1527 1528 1528 1529 1531 1532 1533 1534 1535 1536 1538 1539 1540 1541 1542 1543 1544 1545 1546 1546 1546 1547 1547 1547 1547 1547 1548 1548 1549 1549 1549 1550 1550 1550 1550
1529 1528 1526 1525 1523 1522 1521 1519 1517 1515 1514 1513 1512 1510 1509 1508 1507 1506 1505 1504 1503 1502 1500 1500 1500 1500 1500 1501 1502 1502 1503 1503 1504 1505 1506 1508 1510 1511 1513 1514 1515 1516 1517 1518 1519 1521 1522 1524 1525 1526 1527 1528 1529 1529 1530 1532 1533 1534 1535 1536 1537 1539 1540 1542 1542 1543 1543 1544 1545 1545 1545 1546 1546 1546 1547 1547 1548 1549 1549 1549 1550 1550 1550 1550 1550
1531 1530 1528 1527 1526 1525 1523 1522 1520 1519 1517 1516 1514 1513 1512 1511 1510 1509 1508 1508 1507 1506 1505 1504 1503 1503 1503 1504 1505 1505 1505 1505 1506 1508 1509 1510 1511 1513 1514 1515 1516 1517 1518 1519 1520 1521 1522 1523 1525 1526 1527 1529 1529 1530 1531 1532 1533 1535 1536 1537 1538 1540 1541 1542 1542 1542 1543 1543 1543 1544 1544 1545 1546 1546 1547 1548 1549 1550 1550 1551 1551 1551 1551 1551 1551
1534 1533 1531 1530 1528 1527 1525 1524 1523 1522 1521 1519 1517 1516 1515 1514 1513 1512 1512 1511 1511 1510 1509 1508 1507 1506 1506 1507 1507 1507 1508 1508 1509 1510 1511 1512 1513 1514 1514 1516 1517 1518 1519 1520 1520 1522 1523 1524 1525 1527 1528 1529 1530 1531 1532 1533 1534 1536 1537 1538 1539 1540 1541 1541 1541 1541 1542 1543 1543 1544 1545 1546 1547 1547 1548 1549 1549 1550 1550 1551 1551 1551 1551 1552 1552
1537 1536 1534 1533 1531 1529 1528 1526 1526 1525 1523 1522 1521 1519 1518 1518 1516 1515 1515 1515 1514 1513 1512 1511 1510 1510 1510 1510 1510 1510 1510 1511 1511 1512 1513 1514 1515 1515 1516 1517 1518 1519 1520 1521 1522 1523 1524 1525 1526 1528 1529 1530 1531 1532 1533 1534 1535 1536 1537 1539 1540 1540 1541 1541 1541 1541 1542 1543 1544 1545 1546 1547 1548 1549 1549 1549 1549 1549 1550 1550 1551 1551 1551 1551 1551
1539 1538 1537 1535 1534 1532 1530 1529 1528 1527 1526 1524 1523 1522 1522 1520 1519 1519 1518 1518 1517 1517 1516 1514 1514 1514 1513 1513 1513 1513 1513 1513 1514 1515 1516 1516 1517 1518 1518 1519 1520 1521 1522 1523 1524 1525 1525 1526 1528 1529 1530 1531 1532 1533 1534 1535 1536 1537 1538 1539 1540 1540 1540 1541 1541 1542 1543 1544 1545 1546 1547 1548 1548 1548 1549 1549 1549 1550 1550 1550 1551 1551 1551 1551 1551
1541 1540 1538 1536 1536 1535 1534 1532 1531 1530 1528 1527 1526 1525 1524 1524 1523 1522 1521 1520 1520 1519 1518 1517 1517 1517 1516 1516 1516 1516 1516 1516 1516 1517 1517 1518 1519 1520 1520 1522 1523 1524 1525 1526 1526 1527 1527 1528 1529 1530 1531 1532 1534 1534 1535 1535 1536 1537 1538 1539 1540 1540 1540 1541 1541 1542 1543 1544 1545 1546 1547 1548 1548 1549 1549 1549 1549 1550 1550 1550 1551 1551 1551 1551 1551
1543 1542 1540 1538 1537 1537 1537 1535 1534 1533 1531 1530 1529 1528 1527 1526 1525 1525 1524 1524 1523 1522 1521 1520 1520 1520 1519 1519 1519 1519 1519 1519 1519 1519 1519 1520 1521 1521 1522 1524 1525 1526 1527 1528 1529 1529 1529 1530 1531 1532 1533 1534 1535 1536 1536 1536 1537 1538 1538 1539 1540 1540 1540 1541 1542 1543 1544 1544 1545 1545 1546 1547 1548 1549 1549 1549 1550 1550 1550 1550 1551 1551 1551 1551 1551
1545 1544 1543 1541 1539 1538 1538 1537 1536 1536 1535 1534 1533 1532 1531 1530 1529 1528 1527 1527 1526 1526 1525 1524 1523 1523 1523 1523 1523 1522 1522 1522 1522 1522 1523 1523 1523 1524 1525 1526 1527 1528 1528 1529 1530 1531 1531 1532 1532 1533 1534 1535 1536 1537 1537 1537 1537 1538 1539 1539 1540 1541 1541 1542 1543 1544 1544 1545 1545 1546 1546 1547 1548 1548 1549 1549 1550 1550 1550 1551 1551 1551 1551 1551 1551
1546 1546 1545 1544 1543 1541 1539 1539 1538 1538 1537 1537 1536 1536 1535 1534 1533 1532 1531 1530 1530 1529 1528 1527 1527 1526 1526 1527 1526 1526 1526 1526 1526 1526 1526 1526 1527 1527 1527 1528 1529 1530 1530 1531 1532 1532 1533 1534 1534 1535 1536 1536 1537 1538 1538 1538 1538 1538 1539 1540 1541 1541 1542 1543 1543 1544 1544 1545 1545 1546 1547 1548 1548 1549 1549 1550 1550 1551 1551 1551 1552 1552 1551 1551 1551
1548 1547 1546 1546 1545 1543 1542 1541 1541 1540 1540 1539 1539 1538 1538 1537 1536 1536 1535 1534 1533 1532 1531 1531 1530 1530 1530 1530 1530 1529 1529 1529 1529 1529 1529 1529 1529 1529 1530 1530 1531 1531 1532 1533 1533 1534 1535 1535 1536 1536 1537 1537 1538 1538 1538 1539 1539 1539 1540 1541 1541 1542 1543 1544 1544 1545 1545 1546 1546 1547 1548 1549 1549 1550 1551 1551 1551 1551 1551 1551 1552 1552 1552 1552 1552
1551 1549 1548 1547 1547 1545 1544 1543 1543 1543 1543 1542 1541 1541 1540 1540 1539 1539 1538 1537 1536 1535 1534 1534 1533 1533 1533 1532 1532 1532 1531 1531 1531 1531 1531 1531 1531 1532 1532 1532 1533 1533 1533 1534 1535 1536 1536 1536 1537 1537 1537 1538 1538 1538 1539 1539 1540 1540 1541 1541 1542 1543 1544 1544 1545 1545 1546 1547 1547 1548 1548 1549 1550 1550 1551 1551 1551 1552 1552 1552 1552 1552 1552 1551 1551
1553 1552 1550 1550 1549 1548 1547 1546 1545 1545 1545 1544 1544 1543 1543 1542 1542 1541 1541 1540 1539 1539 1538 1537 1537 1536 1536 1535 1535 1534 1534 1533 1533 1533 1533 1532 1533 1533 1533 1534 1534 1534 1535 1535 1536 1536 1537 1537 1538 1538 1538 1538 1539 1539 1540 1540 1541 1542 1542 1543 1543 1544 1545 1545 1546 1546 1547 1548 1548 1548 1549 1549 1550 1550 1551 1551 1551 1551 1552 1551 1551 1551 1551 1550 1551
1554 1553 1552 1552 1551 1551 1550 1549 1547 1547 1547 1547 1547 1546 1545 1545 1544 1544 1543 1543 1542 1542 1541 1541 1540 1540 1539 1538 1537 1537 1536 1535 1535 1535 1534 1534 1534 1534 1534 1535 1535 1535 1536 1536 1537 1537 1537 1538 1538 1538 1538 1539 1539 1540 1541 1541 1542 1543 1543 1544 1545 1545 1545 1546 1547 1547 1548 1548 1549 1549 1550 1550 1551 1552 1552 1552 1552 1552 1552 1551 1551 1550 1550 1550 1551
1556 1555 1553 1553 1553 1553 1552 1551 1550 1549 1549 1549 1549 1548 1548 1547 1547 1546 1546 1545 1545 1544 1544 1543 1543 1543 1542 1541 1540 1539 1539 1538 1537 1537 1536 1536 1535 1535 1535 1535 1536 1537 1537 1537 1537 1538 1538 1538 1539 1539 1540 1540 1541 1541 1541 1542 1542 1543 1543 1544 1545 1545 1546 1546 1547 1548 1549 1549 1549 1550 1551 1552 1552 1552 1552 1552 1552 1552 1551 1551 1551 1551 1551 1551 1551
1559 1558 1556 1555 1555 1555 1554 1554 1553 1552 1552 1551 1551 1550 1550 1549 1549 1548 1548 1547 1547 1546 1546 1545 1545 1544 1544 1543 1542 1542 1541 1541 1540 1539 1538 1538 1538 1537 1537 1537 1537 1538 1538 1538 1538 1539 1539 1539 1540 1541 1542 1542 1542 1542 1542 1543 1543 1543 1544 1544 1545 1546 1547 1548 1548 1549 1550 1550 1551 1552 1552 1553 1553 1553 1553 1553 1552 1551 1551 1551 1551 1552 1552 1552 1551
1562 1560 1559 1558 1558 1557 1556 1556 1555 1554 1554 1553 1553 1552 1552 1551 1551 1550 1550 1549 1549 1548 1547 1547 1546 1546 1545 1544 1543 1543 1543 1543 1542 1541 1540 1540 1539 1539 1539 1539 1539 1539 1539 1539 1539 1540 1540 1541 1541 1542 1543 1543 1543 1543 1544 1544 1544 1544 1545 1546 1547 1547 1548 1549 1549 1550 1550 1551 1551 1552 1553 1553 1553 1553 1553 1553 1552 1552 1552 1551 1551 1551 1551 1551 1551
1563 1562 1561 1560 1560 1559 1559 1558 1557 1557 1556 1555 1555 1554 1553 1553 1552 1552 1551 1550 1550 1549 1549 1548 1547 1547 1546 1545 1544 1544 1544 1544 1544 1543 1542 1541 1541 1541 1540 1540 1540 1540 1540 1540 1540 1541 1542 1542 1542 1543 1543 1543 1543 1543 1544 1544 1544 1545 1546 1547 1548 1548 1548 1549 1549 1550 1550 1551 1552 1552 1553 1553 1553 1553 1553 1552 1552 1552 1552 1552 1552 1552 1552 1552 1552
1564 1563 1563 1562 1562 1561 1561 1560 1559 1559 1558 1557 1556 1556 1555 1554 1554 1553 1552 1552 1551 1550 1550 1549 1548 1548 1547 1546 1545 1545 1545 1546 1545 1544 1544 1543 1542 1542 1541 1541 1541 1541 1541 1541 1541 1542 1542 1543 1543 1543 1543 1543 1543 1543 1544 1545 1545 1546 1547 1547 1548 1548 1549 1549 1549 1549 1550 1551 1551 1552 1552 1552 1552 1552 1552 1552 1552 1552 1552 1552 1552 1552 1552 1552 1552
1565 1564 1564 1564 1563 1563 1562 1561 1561 1560 1559 1559 1558 1557 1557 1556 1555 1555 1554 1553 1552 1552 1551 1550 1550 1549 1548 1547 1547 1546 1547 1547 1546 1546 1545 1545 1544 1543 1542 1542 1542 1542 1541 1541 1541 1541 1542 1542 1543 1543 1543 1543 1543 1544 1545 1545 1546 1547 1547 1547 1548 1548 1548 1549 1549 1550 1550 1551 1551 1551 1551 1551 1552 1552 1551 1551 1551 1551 1551 1551 1552 1552 1552 1552 1551
1565 1565 1565 1564 1564 1563 1563 1563 1562 1561 1560 1559 1559 1558 1558 1557 1556 1556 1555 1554 1554 1553 1552 1552 1551 1550 1549 1549 1548 1548 1548 1548 1548 1547 1547 1546 1545 1545 1544 1543 1542 1542 1542 1542 1542 1542 1542 1542 1543 1543 1543 1543 1544 1544 1545 1545 1546 1546 1547 1547 1547 1548 1548 1549 1549 1550 1551 1551 1551 1551 1551 1551 1551 1552 1551 1550 1550 1551 1551 1551 1551 1551 1551 1551 1550
1566 1565 1565 1565 1564 1564 1564 1563 1563 1562 1561 1561 1560 1560 1559 1558 1558 1557 1556 1556 1555 1554 1554 1553 1552 1552 1551 1551 1550 1550 1549 1549 1549 1548 1548 1547 1547 1546 1545 1544 1543 1543 1543 1542 1542 1543 1543 1543 1543 1543 1543 1544 1544 1544 1545 1545 1545 1546 1546 1547 1547 1547 1548 1548 1549 1549 1550 1550 1551 1551 1551 1550 1551 1551 1551 1550 1550 1551 1551 1551 1550 1549 1549 1549 1548
1566 1566 1565 1565 1565 1564 1564 1564 1563 1563 1562 1562 1561 1561 1560 1559 1559 1558 1557 1557 1556 1556 1555 1554 1554 1553 1552 1552 1551 1551 1550 1550 1550 1549 1549 1548 1548 1547 1546 1545 1544 1543 1543 1543 1543 1543 1543 1543 1543 1543 1544 1544 1544 1545 1545 1545 1545 1546 1546 1546 1546 1547 1547 1548 1548 1549 1549 1549 1550 1550 1550 1550 1550 1550 1550 1550 1550 1550 1549 1549 1548 1548 1547 1547 1547
1566 1566 1566 1565 1565 1565 1564 1564 1563 1563 1563 1562 1562 1561 1560 1560 1559 1559 1558 1557 1557 1556 1556 1555 1554 1554 1553 1552 1552 1551 1551 1550 1550 1550 1549 1548 1548 1547 1546 1545 1544 1544 1543 1543 1543 1543 1543 1543 1543 1543 1543 1544 1544 1544 1545 1545 1545 1545 1546 1546 1546 1546 1546 1547 1547 1548 1548 1548 1549 1549 1549 1549 1549 1549 1549 1549 1549 1548 1548 1547 1547 1546 1546 1545 1545
1566 1566 1566 1565 1565 1565 1565 1564 1564 1563 1563 1562 1562 1561 1561 1560 1559 1559 1558 1558 1557 1556 1556 1555 1554 1554 1553 1553 1552 1552 1551 1551 1550 1550 1549 1548 1548 1547 1547 1545 1545 1544 1544 1543 1543 1543 1543 1543 1543 1543 1543 1543 1543 1544 1544 1544 1545 1545 1545 1545 1545 1545 1545 1546 1546 1546 1547 1547 1547 1548 1548 1548 1548 1548 1548 1548 1547 1547 1547 1546 1546 1545 1545 1544 1544
1566 1566 1566 1565 1565 1565 1565 1564 1564 1563 1563 1562 1562 1561 1561 1560 1559 1559 1558 1557 1557 1556 1555 1555 1554 1553 1553 1552 1552 1552 1551 1551 1550 1549 1549 1548 1548 1547 1546 1546 1545 1545 1544 1543 1543 1543 1542 1542 1542 1543 1543 1543 1543 1543 1543 1544 1544 1544 1544 1544 1544 1544 1544 1544 1545 1545 1545 1546 1546 1547 1547 1547 1547 1547 1547 1547 1546 1546 1546 1545 1545 1545 1544 1544 1544
1565 1565 1565 1565 1565 1565 1565 1564 1564 1563 1563 1562 1561 1561 1560 1560 1559 1559 1558 1557 1557 1556 1555 1554 1554 1553 1552 1552 1551 1551 1550 1550 1550 1549 1548 1548 1547 1546 1546 1545 1545 1545 1544 1543 1543 1542 1542 1542 1542 1542 1542 1542 1542 1542 1543 1543 1543 1543 1543 1543 1543 1543 1543 1543 1543 1544 1544 1544 1545 1545 1546 1546 1546 1546 1546 1546 1545 1545 1545 1545 1544 1544 1543 1543 1543
1565 1565 1565 1565 1565 1565 1564 1564 1563 1563 1562 1562 1561 1561 1560 1559 1559 1558 1557 1557 1556 1556 1555 1554 1553 1552 1552 1551 1550 1550 1549 1548 1548 1548 1547 1547 1546 1546 1545 1545 1544 1544 1544 1543 1543 1542 1542 1541 1541 1541 1541 1541 1541 1541 1542 1542 1542 1542 1542 1542 1542 1542 1542 1543 1543 1543 1543 1543 1544 1544 1544 1545 1545 1545 1545 1545 1545 1545 1544 1544 1544 1543 1543 1543 1543